When you browse on this site, cookies collect data to enhance your experience and personalize the content and advertising you see.
Visit our Privacy Policy to learn more. By continuing to use the site, you agree to this use of cookies and data.
  • In Sweden
  • List of Countries
  • For 7 days
  • Water Temperature
  • Weather Map
  • Weather Widgets
  • user-avatar
    Login

    Hourly Weather Champigny-sur-Marne

    Today, 19 August, Monday

    Time Temperature Precipitation Wind Pressure Humidity
    00:00 +18°C° 0 mm 1 mps 756 mmHg 75%
    01:00 +18°C° 0 mm 1 mps 756 mmHg 75%
    02:00 +17°C° 0 mm 2 mps 756 mmHg 74%
    03:00 +16°C° 0 mm 2 mps 757 mmHg 73%
    04:00 +16°C° 0 mm 2 mps 757 mmHg 74%
    05:00 +16°C° 0 mm 2 mps 757 mmHg 75%
    06:00 +16°C° 0 mm 2 mps 758 mmHg 75%
    07:00 +18°C° 0 mm 3 mps 758 mmHg 68%
    08:00 +19°C° 0 mm 3 mps 758 mmHg 61%
    09:00 +20°C° 0 mm 4 mps 758 mmHg 54%
    10:00 +21°C° 0 mm 4 mps 758 mmHg 49%
    11:00 +22°C° 0 mm 4 mps 759 mmHg 44%
    12:00 +23°C° 0 mm 4 mps 759 mmHg 39%
    13:00 +23°C° 0 mm 4 mps 759 mmHg 39%
    14:00 +25°C° 0 mm 4 mps 759 mmHg 38%
    15:00 +25°C° 0 mm 4 mps 758 mmHg 38%
    16:00 +24°C° 0 mm 3 mps 759 mmHg 42%
    17:00 +22°C° 0 mm 3 mps 759 mmHg 45%
    18:00 +21°C° 0 mm 3 mps 759 mmHg 49%
    19:00 +21°C° 0 mm 2 mps 760 mmHg 52%
    20:00 +20°C° 0 mm 2 mps 760 mmHg 55%
    21:00 +19°C° 0 mm 2 mps 760 mmHg 59%
    22:00 +19°C° 0 mm 1 mps 760 mmHg 61%
    23:00 +18°C° 0 mm 1 mps 761 mmHg 63%

    Tomorrow, 20 August, Tuesday

    Time Temperature Precipitation Wind Pressure Humidity
    00:00 +18°C° 0 mm 1 mps 761 mmHg 64%
    01:00 +16°C° 0 mm 1 mps 761 mmHg 66%
    02:00 +16°C° 0 mm 1 mps 761 mmHg 68%
    03:00 +15°C° 0 mm 1 mps 761 mmHg 70%
    04:00 +15°C° 0 mm 1 mps 761 mmHg 69%
    05:00 +15°C° 0 mm 0 mps 761 mmHg 69%
    06:00 +15°C° 0 mm 0 mps 761 mmHg 69%
    07:00 +18°C° 0 mm 1 mps 762 mmHg 63%
    08:00 +20°C° 0 mm 1 mps 762 mmHg 57%
    09:00 +21°C° 0 mm 1 mps 762 mmHg 51%
    10:00 +21°C° 0 mm 2 mps 762 mmHg 49%
    11:00 +23°C° 0 mm 2 mps 762 mmHg 46%
    12:00 +24°C° 0 mm 2 mps 762 mmHg 44%
    13:00 +24°C° 0 mm 2 mps 762 mmHg 43%
    14:00 +24°C° 0 mm 2 mps 763 mmHg 43%
    15:00 +24°C° 0 mm 2 mps 763 mmHg 42%
    16:00 +23°C° 0 mm 2 mps 763 mmHg 45%
    17:00 +23°C° 0 mm 2 mps 763 mmHg 47%
    18:00 +21°C° 0 mm 2 mps 763 mmHg 49%
    19:00 +20°C° 0 mm 2 mps 763 mmHg 54%
    20:00 +19°C° 0 mm 2 mps 764 mmHg 58%
    21:00 +18°C° 0 mm 3 mps 764 mmHg 62%
    22:00 +17°C° 0 mm 2 mps 764 mmHg 67%
    23:00 +16°C° 0 mm 2 mps 765 mmHg 71%

    Day after tomorrow, 21 August, Wednesday

    Time Temperature Precipitation Wind Pressure Humidity
    00:00 +15°C° 0 mm 2 mps 765 mmHg 75%
    01:00 +15°C° 0 mm 2 mps 765 mmHg 76%
    02:00 +14°C° 0 mm 2 mps 765 mmHg 77%
    03:00 +14°C° 0 mm 1 mps 765 mmHg 78%
    04:00 +14°C° 0 mm 1 mps 765 mmHg 77%
    05:00 +14°C° 0 mm 1 mps 765 mmHg 76%
    06:00 +14°C° 0 mm 1 mps 765 mmHg 75%
    07:00 +16°C° 0 mm 1 mps 765 mmHg 68%
    08:00 +19°C° 0 mm 1 mps 765 mmHg 61%
    09:00 +21°C° 0 mm 1 mps 765 mmHg 54%
    10:00 +21°C° 0 mm 2 mps 764 mmHg 50%
    11:00 +23°C° 0 mm 2 mps 764 mmHg 46%
    12:00 +25°C° 0 mm 2 mps 764 mmHg 42%
    13:00 +25°C° 0 mm 2 mps 763 mmHg 40%
    14:00 +26°C° 0 mm 2 mps 763 mmHg 38%
    15:00 +26°C° 0 mm 2 mps 763 mmHg 35%
    16:00 +25°C° 0 mm 2 mps 763 mmHg 39%
    17:00 +25°C° 0 mm 2 mps 763 mmHg 42%
    18:00 +24°C° 0 mm 2 mps 763 mmHg 46%
    19:00 +21°C° 0 mm 2 mps 763 mmHg 50%
    20:00 +20°C° 0 mm 2 mps 763 mmHg 53%
    21:00 +19°C° 0 mm 2 mps 763 mmHg 57%
    22:00 +18°C° 0 mm 2 mps 763 mmHg 59%
    23:00 +19°C° 0 mm 1 mps 763 mmHg 60%

    22 August, Thursday

    Time Temperature Precipitation Wind Pressure Humidity
    00:00 +18°C° 0 mm 1 mps 763 mmHg 62%
    01:00 +18°C° 0 mm 1 mps 763 mmHg 63%
    02:00 +18°C° 0 mm 1 mps 763 mmHg 64%
    03:00 +16°C° 0 mm 1 mps 763 mmHg 64%
    04:00 +16°C° 0 mm 1 mps 763 mmHg 64%
    05:00 +18°C° 0 mm 1 mps 763 mmHg 63%
    06:00 +16°C° 0 mm 0 mps 763 mmHg 63%
    07:00 +20°C° 0 mm 1 mps 764 mmHg 57%
    08:00 +21°C° 0 mm 1 mps 764 mmHg 51%
    09:00 +23°C° 0 mm 1 mps 764 mmHg 45%
    10:00 +25°C° 0 mm 1 mps 764 mmHg 41%
    11:00 +26°C° 0 mm 2 mps 764 mmHg 38%
    12:00 +27°C° 0 mm 2 mps 763 mmHg 35%
    13:00 +27°C° 0 mm 2 mps 763 mmHg 34%
    14:00 +28°C° 0 mm 2 mps 763 mmHg 33%
    15:00 +28°C° 0 mm 2 mps 763 mmHg 32%
    16:00 +27°C° 0 mm 2 mps 763 mmHg 36%
    17:00 +26°C° 0 mm 2 mps 763 mmHg 40%
    18:00 +25°C° 0 mm 2 mps 763 mmHg 44%
    19:00 +23°C° 0 mm 2 mps 763 mmHg 48%
    20:00 +21°C° 0 mm 2 mps 763 mmHg 52%
    21:00 +20°C° 0 mm 3 mps 764 mmHg 56%
    22:00 +19°C° 0 mm 2 mps 764 mmHg 57%
    23:00 +18°C° 0 mm 2 mps 764 mmHg 59%

    23 August, Friday

    Time Temperature Precipitation Wind Pressure Humidity
    00:00 +17°C° 0 mm 2 mps 763 mmHg 61%
    01:00 +17°C° 0 mm 2 mps 763 mmHg 61%
    02:00 +16°C° 0 mm 2 mps 763 mmHg 61%
    03:00 +16°C° 0 mm 2 mps 763 mmHg 61%
    04:00 +16°C° 0 mm 2 mps 763 mmHg 62%
    05:00 +16°C° 0 mm 2 mps 763 mmHg 63%
    06:00 +16°C° 0 mm 2 mps 763 mmHg 63%
    07:00 +18°C° 0 mm 2 mps 763 mmHg 58%
    08:00 +21°C° 0 mm 3 mps 763 mmHg 53%
    09:00 +24°C° 0 mm 3 mps 763 mmHg 47%
    10:00 +25°C° 0 mm 3 mps 762 mmHg 45%
    11:00 +27°C° 0 mm 3 mps 762 mmHg 42%
    12:00 +28°C° 0 mm 3 mps 761 mmHg 39%
    13:00 +29°C° 0 mm 3 mps 761 mmHg 38%
    14:00 +29°C° 0 mm 3 mps 760 mmHg 36%
    15:00 +30°C° 0 mm 3 mps 760 mmHg 35%
    16:00 +29°C° 0 mm 3 mps 760 mmHg 39%
    17:00 +28°C° 0 mm 3 mps 760 mmHg 43%
    18:00 +27°C° 0 mm 3 mps 759 mmHg 47%
    19:00 +26°C° 0 mm 3 mps 759 mmHg 50%
    20:00 +24°C° 0 mm 3 mps 759 mmHg 54%
    21:00 +22°C° 0 mm 3 mps 759 mmHg 57%
    22:00 +23°C° 0 mm 2 mps 759 mmHg 61%
    23:00 +21°C° 0 mm 2 mps 759 mmHg 64%

    24 August, Saturday

    Time Temperature Precipitation Wind Pressure Humidity
    00:00 +20°C° 0 mm 2 mps 759 mmHg 67%
    01:00 +20°C° 0 mm 2 mps 758 mmHg 70%
    02:00 +19°C° 0 mm 2 mps 758 mmHg 72%
    03:00 +20°C° 0 mm 1 mps 758 mmHg 75%
    04:00 +20°C° 0 mm 1 mps 758 mmHg 75%
    05:00 +20°C° 0 mm 1 mps 758 mmHg 76%
    06:00 +20°C° 0 mm 1 mps 758 mmHg 76%
    07:00 +22°C° 0 mm 1 mps 758 mmHg 70%
    08:00 +24°C° 0 mm 1 mps 758 mmHg 63%
    09:00 +26°C° 0 mm 1 mps 758 mmHg 56%
    10:00 +27°C° 0 mm 1 mps 758 mmHg 50%
    11:00 +29°C° 0 mm 1 mps 757 mmHg 45%
    12:00 +31°C° 0 mm 1 mps 757 mmHg 39%
    13:00 +31°C° 0 mm 1 mps 757 mmHg 36%
    14:00 +32°C° 0 mm 1 mps 757 mmHg 33%
    15:00 +32°C° 0 mm 1 mps 756 mmHg 30%
    16:00 +31°C° 0 mm 1 mps 756 mmHg 32%
    17:00 +30°C° 0 mm 1 mps 756 mmHg 34%
    18:00 +29°C° 0 mm 2 mps 756 mmHg 37%
    19:00 +28°C° 0 mm 2 mps 756 mmHg 40%
    20:00 +26°C° 0 mm 2 mps 756 mmHg 43%
    21:00 +25°C° 0 mm 2 mps 757 mmHg 47%
    22:00 +24°C° 0 mm 2 mps 757 mmHg 50%
    23:00 +24°C° 0 mm 2 mps 757 mmHg 53%
    Show more